TimeCST,TemperatureF,Dew PointF,Humidity,Sea Level PressureIn,VisibilityMPH,Wind Direction,Wind SpeedMPH,Gust SpeedMPH,PrecipitationIn,Events,Conditions,WindDirDegrees,DateUTC
12:53 AM,37.9,25.0,60,30.09,10.0,WNW,6.9,-,N/A,,Overcast,300,2013-03-03 06:53:00
1:53 AM,37.0,25.0,62,30.08,10.0,Variable,5.8,-,N/A,,Overcast,0,2013-03-03 07:53:00
2:53 AM,37.0,26.1,65,30.08,10.0,NW,4.6,-,N/A,,Overcast,310,2013-03-03 08:53:00
3:53 AM,37.0,27.0,67,30.08,10.0,NW,6.9,-,N/A,,Overcast,310,2013-03-03 09:53:00
4:53 AM,36.0,27.0,70,30.08,10.0,WNW,5.8,-,N/A,,Overcast,300,2013-03-03 10:53:00
5:53 AM,36.0,27.0,70,30.09,10.0,NW,4.6,-,N/A,,Overcast,310,2013-03-03 11:53:00
6:53 AM,36.0,27.0,70,30.11,10.0,NW,8.1,-,N/A,,Overcast,310,2013-03-03 12:53:00
7:53 AM,37.0,27.0,67,30.13,10.0,WNW,5.8,-,N/A,,Overcast,300,2013-03-03 13:53:00
8:01 AM,37.4,26.6,65,30.15,10.0,West,8.1,-,N/A,,Overcast,280,2013-03-03 14:01:00
8:17 AM,37.4,26.6,65,30.15,10.0,Variable,5.8,-,N/A,,Mostly Cloudy,0,2013-03-03 14:17:00
8:53 AM,37.0,25.0,62,30.14,10.0,NW,9.2,16.1,N/A,,Scattered Clouds,320,2013-03-03 14:53:00
9:53 AM,41.0,21.9,47,30.14,10.0,NNW,11.5,16.1,N/A,,Mostly Cloudy,330,2013-03-03 15:53:00
10:53 AM,42.1,21.9,45,30.12,10.0,NNW,10.4,20.7,N/A,,Scattered Clouds,340,2013-03-03 16:53:00
11:53 AM,44.1,21.9,42,30.10,10.0,Variable,6.9,19.6,N/A,,Scattered Clouds,0,2013-03-03 17:53:00
12:53 PM,46.0,21.9,39,30.08,10.0,NW,8.1,19.6,N/A,,Clear,320,2013-03-03 18:53:00
1:53 PM,48.0,21.0,34,30.06,10.0,NNW,15.0,20.7,N/A,,Clear,340,2013-03-03 19:53:00
2:53 PM,48.9,21.0,33,30.05,10.0,NW,6.9,18.4,N/A,,Clear,320,2013-03-03 20:53:00
3:53 PM,48.9,21.0,33,30.06,10.0,NW,10.4,-,N/A,,Clear,310,2013-03-03 21:53:00
4:53 PM,48.0,21.0,34,30.08,10.0,NNW,4.6,-,N/A,,Clear,330,2013-03-03 22:53:00
5:53 PM,45.0,21.9,40,30.09,10.0,Calm,Calm,-,N/A,,Clear,0,2013-03-03 23:53:00
6:53 PM,37.9,26.1,62,30.11,10.0,Calm,Calm,-,N/A,,Clear,0,2013-03-04 00:53:00
7:53 PM,35.1,26.1,70,30.13,10.0,WNW,3.5,-,N/A,,Clear,290,2013-03-04 01:53:00
8:53 PM,37.0,25.0,62,30.14,10.0,Calm,Calm,-,N/A,,Clear,0,2013-03-04 02:53:00
9:53 PM,37.0,25.0,62,30.14,10.0,West,3.5,-,N/A,,Clear,280,2013-03-04 03:53:00
10:53 PM,34.0,26.1,73,30.14,10.0,WNW,3.5,-,N/A,,Clear,290,2013-03-04 04:53:00
11:53 PM,34.0,25.0,70,30.14,10.0,WNW,4.6,-,N/A,,Clear,300,2013-03-04 05:53:00